Погода в Лазо

Россия / Камчатский край     55°32′20″N   159°45′26″E
темп.,
°C
ветер,
м/с
пор.,
м/с
влажн.,
%
обл.,
%
осадки,
мм/ч
давл.,
гПа
погр.,
м
9 мая, вс
вс900:00+4сз129197 6.1 1010430
03:00+2ссз2495100 1.5 1009360
06:00+2с3698100 2.3 1009327
09:00+1с4691100 0.6 1009504
12:00+4с5668100 0.9 1008977
15:00+5с5652100 0.2 10071460
18:00+4с796193 0.2 1008844
21:00+1с5118253 0.0 1009579
10 мая, пн
пн1000:000ссз589295 0.1 1011489
03:00−1с379180 0.1 1011385
06:00−1с469196 0.3 1012512
09:00+1с227663 0.1 1013635
12:00+5с235589 0.1 10121389
15:00+6с435290 0.1 10121539
18:00+6ссз445337 0.1 10121189
21:00+2ссз47735 0.0 1013280
11 мая, вт
вт1100:000ссз24856 0.0 1013149
03:00−1с248933 0.0 1013153
06:00−2с139220 0.0 1013156
09:00+2с236814 0.0 1012628
12:00+6с4552100 0.0 10111620
15:00+6с5553100 0.1 10101462
18:00+5с566193 0.1 10101167
21:00+2ссв467357 0.0 1010428
12 мая, ср
ср1200:000с36876 0.1 1011169
03:00−2ссз359319 0.0 1011174
06:00−2с2487100 0.0 1011192
09:00+2с2365100 0.0 1011551
12:00+6с225072 0.0 10101140
15:00+8с344496 0.0 10081865
18:00+8с674886 0.1 10081539
21:00+4с476387 0.1 1009234
13 мая, чт
чт1300:000ссз24787 0.1 1011148
03:00−1ссз23795 0.0 1011129
06:00−2ссз137831 0.0 1012126
09:00+3с235432 0.0 1012488
12:00+7с23486 0.0 10101208
15:00+10ссв343844 0.0 10091906
18:00+10с453599 0.0 10082077
21:00+6ссв375570 0.0 1010330